User: anonymous   Login
Location: Caltech
(34.1382°N, 118.1253°W)
Time: 18:09:20
(UTC-07:00)
Language:

AO-27 - Orbit

View from above orbital plane
View from above orbital plane
View from above satellite
View from above satellite

Ground track
Ground track

The orbit data is extracted from the following two-line orbital elements,

1 22825U 93061C   16238.91674408 +.00000008 +00000-0 +20476-4 0  9998
2 22825 098.7658 195.6184 0009445 110.9659 249.2534 14.29965145194932
Epoch (UTC): 25 August 2016 22:00:06
Eccentricity: 0.0009445
inclination: 98.7658°
perigee height: 785 km
apogee height: 798 km
right ascension of ascending node: 195.6184°
argument of perigee: 110.9659°
revolutions per day: 14.29965145
mean anomaly at epoch: 249.2534°
orbit number at epoch: 19493

The dashed part of the orbit path shows where the satellite is in the earth's shadow,  

DLR